MU260 VHHH-RJAA

Flight info

Callsign MU260
Flight time 3h 11m
Altitude 35000
Route DALOL V631 ENVAR M750 MUKEP Y891 AGIMO Y89 GUPER Y81 RUTAS
Aircraft A321/M-SDE3FGHIRWY/LB1

Departure

Time 2026-05-06 02:05
Airport Hong Kong International Airport (VHHH)

Arrival

Time 2026-05-06 05:17
Airport Narita International Airport (RJAA)
Time Latitude Longitude Altitude Speed Heading
2026-05-06 01:40 22.31533 113.93207 37 ft 0 kts 165°
2026-05-06 01:49 22.31537 113.93206 37 ft 3 kts 165°
2026-05-06 01:49 22.31563 113.93198 36 ft 4 kts 165°
2026-05-06 01:49 22.31589 113.93191 36 ft 4 kts 166°
2026-05-06 01:49 22.31615 113.93185 36 ft 4 kts 176°
2026-05-06 01:50 22.31642 113.93186 35 ft 4 kts 191°
2026-05-06 01:50 22.31664 113.93193 35 ft 1 kts 205°
2026-05-06 01:50 22.31669 113.93195 35 ft 0 kts 205°
2026-05-06 01:53 22.31668 113.93195 37 ft 1 kts 205°
2026-05-06 01:53 22.31647 113.93184 37 ft 3 kts 205°
2026-05-06 01:53 22.31618 113.93166 37 ft 7 kts 219°
2026-05-06 01:54 22.31593 113.93110 37 ft 9 kts 249°
2026-05-06 01:54 22.31574 113.93050 37 ft 8 kts 252°
2026-05-06 01:54 22.31552 113.92982 37 ft 13 kts 250°
2026-05-06 01:54 22.31523 113.92892 37 ft 12 kts 250°
2026-05-06 01:55 22.31497 113.92814 36 ft 10 kts 250°
2026-05-06 01:55 22.31499 113.92749 37 ft 8 kts 293°
2026-05-06 01:55 22.31527 113.92687 37 ft 11 kts 296°
2026-05-06 01:55 22.31566 113.92599 37 ft 14 kts 296°
2026-05-06 01:56 22.31612 113.92496 37 ft 15 kts 295°
2026-05-06 01:56 22.31650 113.92396 37 ft 14 kts 275°
2026-05-06 01:56 22.31625 113.92303 35 ft 13 kts 250°
2026-05-06 01:56 22.31589 113.92192 37 ft 18 kts 250°
2026-05-06 01:57 22.31548 113.92065 37 ft 17 kts 250°
2026-05-06 01:57 22.31523 113.91988 35 ft 16 kts 251°
2026-05-06 01:57 22.31478 113.91848 36 ft 14 kts 251°
2026-05-06 01:57 22.31448 113.91758 37 ft 12 kts 251°
2026-05-06 01:58 22.31421 113.91670 37 ft 14 kts 251°
2026-05-06 01:58 22.31400 113.91602 37 ft 14 kts 251°
2026-05-06 01:58 22.31371 113.91511 37 ft 12 kts 251°
2026-05-06 01:58 22.31347 113.91434 37 ft 11 kts 250°
2026-05-06 01:59 22.31317 113.91345 37 ft 14 kts 249°
2026-05-06 01:59 22.31279 113.91232 37 ft 18 kts 250°
2026-05-06 01:59 22.31236 113.91095 37 ft 21 kts 251°
2026-05-06 01:59 22.31190 113.90952 37 ft 20 kts 251°
2026-05-06 02:00 22.31132 113.90774 37 ft 18 kts 251°
2026-05-06 02:00 22.31106 113.90692 37 ft 17 kts 251°
2026-05-06 02:00 22.31069 113.90579 37 ft 15 kts 251°
2026-05-06 02:00 22.31036 113.90477 37 ft 14 kts 251°
2026-05-06 02:01 22.31005 113.90382 35 ft 15 kts 250°
2026-05-06 02:01 22.30965 113.90260 37 ft 19 kts 251°
2026-05-06 02:01 22.30924 113.90131 37 ft 17 kts 251°
2026-05-06 02:01 22.30887 113.90013 37 ft 16 kts 251°
2026-05-06 02:02 22.30853 113.89907 37 ft 14 kts 251°
2026-05-06 02:02 22.30881 113.89833 36 ft 11 kts 335°
2026-05-06 02:02 22.30948 113.89807 37 ft 9 kts 340°
2026-05-06 02:02 22.30951 113.89806 37 ft 0 kts 340°
2026-05-06 02:03 22.30951 113.89805 37 ft 1 kts 340°
2026-05-06 02:04 22.30985 113.89792 37 ft 10 kts 340°
2026-05-06 02:04 22.31066 113.89765 36 ft 11 kts
2026-05-06 02:04 22.31100 113.89821 36 ft 13 kts 69°
2026-05-06 02:04 22.31172 113.90044 37 ft 61 kts 71°
2026-05-06 02:05 22.31379 113.90687 37 ft 117 kts 71°
2026-05-06 02:05 22.31698 113.91673 38 ft 158 kts 70°
2026-05-06 02:05 22.32073 113.92848 358 ft 168 kts 73°
2026-05-06 02:05 22.32433 113.94052 938 ft 169 kts 75°
2026-05-06 02:06 22.32819 113.95296 1342 ft 181 kts 72°
2026-05-06 02:06 22.33261 113.96646 1553 ft 201 kts 71°
2026-05-06 02:06 22.33633 113.98130 1914 ft 209 kts 80°
2026-05-06 02:06 22.33904 113.99675 2532 ft 208 kts 81°
2026-05-06 02:07 22.34142 114.01220 3068 ft 209 kts 82°
2026-05-06 02:07 22.34379 114.02788 3555 ft 213 kts 82°
2026-05-06 02:07 22.34585 114.04419 3859 ft 227 kts 92°
2026-05-06 02:07 22.34188 114.06050 4262 ft 231 kts 121°
2026-05-06 02:08 22.33083 114.07313 4744 ft 234 kts 150°
2026-05-06 02:08 22.31557 114.07924 5248 ft 235 kts 166°
2026-05-06 02:08 22.29966 114.08388 5791 ft 236 kts 166°
2026-05-06 02:08 22.28360 114.08667 6306 ft 237 kts 180°
2026-05-06 02:09 22.26695 114.08675 6823 ft 240 kts 181°
2026-05-06 02:09 22.25014 114.08688 7387 ft 243 kts 181°
2026-05-06 02:09 22.23252 114.08690 7605 ft 264 kts 182°
2026-05-06 02:09 22.21357 114.08674 7922 ft 278 kts 183°
2026-05-06 02:10 22.19423 114.08656 8460 ft 284 kts 181°
2026-05-06 02:10 22.17454 114.09046 9002 ft 293 kts 160°
2026-05-06 02:10 22.15697 114.10213 9553 ft 302 kts 138°
2026-05-06 02:10 22.14428 114.12037 10056 ft 309 kts 117°
2026-05-06 02:11 22.13469 114.14166 10343 ft 323 kts 117°
2026-05-06 02:11 22.12428 114.16389 10485 ft 341 kts 118°
2026-05-06 02:11 22.11328 114.18692 10605 ft 358 kts 118°
2026-05-06 02:11 22.10149 114.21143 10751 ft 375 kts 118°
2026-05-06 02:12 22.08894 114.23694 10866 ft 390 kts 122°
2026-05-06 02:12 22.07284 114.26072 11248 ft 394 kts 133°
2026-05-06 02:12 22.05292 114.28113 11730 ft 395 kts 144°
2026-05-06 02:12 22.03071 114.29878 12214 ft 398 kts 146°
2026-05-06 02:13 22.00853 114.31621 12687 ft 401 kts 146°
2026-05-06 02:13 21.98582 114.33407 13177 ft 405 kts 146°
2026-05-06 02:13 21.96300 114.35202 13648 ft 408 kts 146°
2026-05-06 02:13 21.93994 114.37019 14055 ft 411 kts 146°
2026-05-06 02:14 21.91670 114.38847 14463 ft 414 kts 146°
2026-05-06 02:14 21.89363 114.40658 14859 ft 416 kts 146°
2026-05-06 02:14 21.87144 114.42684 15260 ft 421 kts 136°
2026-05-06 02:14 21.85303 114.45157 15649 ft 426 kts 124°
2026-05-06 02:15 21.83931 114.48000 16021 ft 430 kts 112°
2026-05-06 02:15 21.83040 114.51088 16388 ft 433 kts 105°
2026-05-06 02:15 21.82254 114.54192 16754 ft 435 kts 106°
2026-05-06 02:15 21.81446 114.57336 17121 ft 437 kts 106°
2026-05-06 02:16 21.80624 114.60503 17478 ft 440 kts 106°
2026-05-06 02:16 21.79794 114.63678 17845 ft 442 kts 106°
2026-05-06 02:16 21.78958 114.66877 18191 ft 444 kts 106°
2026-05-06 02:16 21.78121 114.70102 18501 ft 447 kts 106°
2026-05-06 02:17 21.77284 114.73327 18808 ft 448 kts 106°
2026-05-06 02:17 21.76453 114.76528 19098 ft 450 kts 106°
2026-05-06 02:17 21.75607 114.79778 19398 ft 452 kts 106°
2026-05-06 02:17 21.74792 114.83066 19688 ft 454 kts 102°
2026-05-06 02:18 21.74373 114.86443 19986 ft 456 kts 92°
2026-05-06 02:18 21.74355 114.89866 20272 ft 458 kts 89°
2026-05-06 02:18 21.74367 114.93303 20579 ft 459 kts 89°
2026-05-06 02:18 21.74371 114.96754 20884 ft 461 kts 89°
2026-05-06 02:19 21.74370 115.00180 21186 ft 463 kts 90°
2026-05-06 02:19 21.74367 115.03649 21485 ft 465 kts 90°
2026-05-06 02:19 21.74364 115.07139 21787 ft 466 kts 90°
2026-05-06 02:19 21.74358 115.10635 22076 ft 468 kts 90°
2026-05-06 02:20 21.74348 115.17633 22657 ft 471 kts 90°
2026-05-06 02:20 21.74342 115.21174 22943 ft 473 kts 90°
2026-05-06 02:20 21.74332 115.24719 23221 ft 475 kts 90°
2026-05-06 02:21 21.74324 115.28286 23492 ft 477 kts 90°
2026-05-06 02:21 21.74318 115.31863 23735 ft 478 kts 90°
2026-05-06 02:21 21.74312 115.35445 23969 ft 480 kts 90°
2026-05-06 02:21 21.74305 115.39005 24199 ft 481 kts 90°
2026-05-06 02:22 21.74296 115.42616 24423 ft 482 kts 90°
2026-05-06 02:22 21.74284 115.46230 24646 ft 484 kts 90°
2026-05-06 02:22 21.74268 115.49872 24864 ft 485 kts 90°
2026-05-06 02:22 21.74253 115.53509 25076 ft 487 kts 90°
2026-05-06 02:23 21.74240 115.57164 25293 ft 488 kts 90°
2026-05-06 02:23 21.74227 115.60829 25503 ft 490 kts 90°
2026-05-06 02:23 21.74213 115.64466 25707 ft 491 kts 90°
2026-05-06 02:23 21.74202 115.68146 25919 ft 493 kts 90°
2026-05-06 02:24 21.74190 115.71845 26129 ft 494 kts 90°
2026-05-06 02:24 21.74178 115.75574 26339 ft 496 kts 90°
2026-05-06 02:24 21.74160 115.79248 26550 ft 498 kts 90°
2026-05-06 02:24 21.74139 115.83000 26763 ft 499 kts 90°
2026-05-06 02:25 21.74118 115.86744 26974 ft 500 kts 90°
2026-05-06 02:25 21.74097 115.90448 27198 ft 501 kts 90°
2026-05-06 02:25 21.74075 115.94198 27485 ft 500 kts 90°
2026-05-06 02:25 21.74055 115.97934 27770 ft 499 kts 90°
2026-05-06 02:26 21.74037 116.01665 28048 ft 499 kts 90°
2026-05-06 02:26 21.74018 116.05396 28329 ft 498 kts 90°
2026-05-06 02:26 21.73995 116.09129 28612 ft 498 kts 90°
2026-05-06 02:26 21.73968 116.12849 28893 ft 497 kts 90°
2026-05-06 02:27 21.73942 116.16565 29174 ft 497 kts 90°
2026-05-06 02:27 21.73915 116.20278 29458 ft 496 kts 90°
2026-05-06 02:27 21.73891 116.23988 29726 ft 496 kts 90°
2026-05-06 02:27 21.73866 116.27685 29988 ft 496 kts 90°
2026-05-06 02:28 21.73840 116.31356 30210 ft 496 kts 90°
2026-05-06 02:28 21.73812 116.35082 30433 ft 496 kts 90°
2026-05-06 02:28 21.73781 116.38794 30639 ft 496 kts 90°
2026-05-06 02:28 21.73749 116.42516 30849 ft 497 kts 90°
2026-05-06 02:29 21.73715 116.46245 31061 ft 497 kts 90°
2026-05-06 02:29 21.73681 116.49923 31271 ft 498 kts 89°
2026-05-06 02:29 21.73645 116.53663 31481 ft 498 kts 89°
2026-05-06 02:29 21.73608 116.57389 31696 ft 498 kts 89°
2026-05-06 02:30 21.73575 116.61118 31913 ft 499 kts 89°
2026-05-06 02:30 21.73541 116.64857 32128 ft 499 kts 89°
2026-05-06 02:30 21.73506 116.68550 32355 ft 499 kts 89°
2026-05-06 02:30 21.73471 116.72287 32573 ft 500 kts 89°
2026-05-06 02:31 21.73487 116.76025 32788 ft 499 kts 84°
2026-05-06 02:31 21.74006 116.79722 32961 ft 497 kts 73°
2026-05-06 02:31 21.75098 116.83228 33000 ft 493 kts 66°
2026-05-06 02:32 21.77598 116.90085 33002 ft 493 kts 66°
2026-05-06 02:32 21.80089 116.96936 32895 ft 495 kts 66°
2026-05-06 02:33 21.82591 117.03850 33104 ft 495 kts 66°
2026-05-06 02:33 21.83418 117.06147 33274 ft 495 kts 66°
2026-05-06 02:33 21.86323 117.14235 33818 ft 496 kts 66°
2026-05-06 02:34 21.87548 117.17652 34041 ft 496 kts 66°
2026-05-06 02:34 21.88798 117.21130 34241 ft 496 kts 66°
2026-05-06 02:34 21.90051 117.24598 34447 ft 496 kts 65°
2026-05-06 02:34 21.91305 117.28074 34651 ft 496 kts 65°
2026-05-06 02:35 21.92539 117.31496 34855 ft 496 kts 65°
2026-05-06 02:35 21.93742 117.34839 34984 ft 497 kts 66°
2026-05-06 02:35 21.94994 117.38330 35011 ft 497 kts 66°
2026-05-06 02:36 21.97467 117.45237 35007 ft 496 kts 66°
2026-05-06 02:36 22.00286 117.51985 35005 ft 491 kts 54°
2026-05-06 02:37 22.03853 117.58259 35005 ft 491 kts 54°
2026-05-06 02:37 22.07442 117.64553 35009 ft 492 kts 54°
2026-05-06 02:38 22.11001 117.70828 35011 ft 492 kts 54°
2026-05-06 02:38 22.14557 117.77115 35012 ft 493 kts 54°
2026-05-06 02:39 22.18137 117.83445 35017 ft 493 kts 54°
2026-05-06 02:39 22.21715 117.89774 35018 ft 494 kts 54°
2026-05-06 02:40 22.25279 117.96071 35018 ft 494 kts 54°
2026-05-06 02:40 22.28863 118.02421 35019 ft 494 kts 54°
2026-05-06 02:41 22.32497 118.08687 35023 ft 494 kts 53°
2026-05-06 02:41 22.36188 118.14944 35024 ft 494 kts 53°
2026-05-06 02:42 22.39866 118.21228 35022 ft 494 kts 53°
2026-05-06 02:42 22.43503 118.27558 35027 ft 495 kts 54°
2026-05-06 02:43 22.47080 118.33924 35034 ft 495 kts 54°
2026-05-06 02:43 22.50635 118.40245 35025 ft 494 kts 54°
2026-05-06 02:44 22.54226 118.46607 35043 ft 494 kts 54°
2026-05-06 02:44 22.57208 118.51890 35038 ft 494 kts 54°
2026-05-06 02:45 22.60809 118.58225 35036 ft 493 kts 54°
2026-05-06 02:45 22.64405 118.64506 35042 ft 493 kts 54°
2026-05-06 02:46 22.68007 118.70823 35039 ft 492 kts 54°
2026-05-06 02:46 22.71598 118.77149 35036 ft 492 kts 54°
2026-05-06 02:47 22.75169 118.83450 35034 ft 491 kts 54°
2026-05-06 02:47 22.78744 118.89765 35034 ft 490 kts 54°
2026-05-06 02:48 22.82283 118.96027 35041 ft 489 kts 54°
2026-05-06 02:48 22.85851 119.02333 35036 ft 489 kts 54°
2026-05-06 02:49 22.89401 119.08612 35032 ft 488 kts 54°
2026-05-06 02:49 22.92942 119.14898 35035 ft 487 kts 54°
2026-05-06 02:50 22.95446 119.19351 35034 ft 487 kts 54°
2026-05-06 02:50 22.98986 119.25632 35034 ft 486 kts 54°
2026-05-06 02:51 23.02506 119.31880 35035 ft 486 kts 54°
2026-05-06 02:51 23.06025 119.38151 35033 ft 485 kts 54°
2026-05-06 02:52 23.09508 119.44382 35034 ft 485 kts 54°
2026-05-06 02:52 23.13011 119.50641 35032 ft 484 kts 54°
2026-05-06 02:53 23.16515 119.56909 35032 ft 484 kts 54°
2026-05-06 02:53 23.20015 119.63165 35033 ft 484 kts 54°
2026-05-06 02:54 23.23493 119.69386 35031 ft 483 kts 54°
2026-05-06 02:54 23.26992 119.75657 35035 ft 483 kts 54°
2026-05-06 02:55 23.30460 119.81877 35036 ft 483 kts 53°
2026-05-06 02:55 23.33945 119.88134 35033 ft 483 kts 54°
2026-05-06 02:56 23.37837 119.93993 35026 ft 472 kts 40°
2026-05-06 02:56 23.42594 119.98905 35025 ft 470 kts 37°
2026-05-06 02:57 23.47322 120.03763 35025 ft 470 kts 38°
2026-05-06 02:57 23.52069 120.08656 35024 ft 470 kts 38°
2026-05-06 02:58 23.56823 120.13567 35029 ft 470 kts 37°
2026-05-06 02:58 23.61544 120.18440 35032 ft 469 kts 37°
2026-05-06 02:59 23.66286 120.23339 35033 ft 469 kts 37°
2026-05-06 02:59 23.71024 120.28247 35038 ft 469 kts 37°
2026-05-06 03:00 23.75763 120.33162 35043 ft 468 kts 37°
2026-05-06 03:00 23.80455 120.38036 35048 ft 468 kts 37°
2026-05-06 03:01 23.85181 120.42936 35051 ft 467 kts 37°
2026-05-06 03:01 23.89894 120.47831 35052 ft 467 kts 37°
2026-05-06 03:02 23.94567 120.52712 35056 ft 466 kts 37°
2026-05-06 03:02 23.99243 120.57657 35059 ft 466 kts 37°
2026-05-06 03:03 24.03905 120.62597 35066 ft 466 kts 37°
2026-05-06 03:03 24.08548 120.67508 35067 ft 465 kts 37°
2026-05-06 03:04 24.13216 120.72434 35070 ft 465 kts 37°
2026-05-06 03:04 24.17808 120.77357 34989 ft 464 kts 37°
2026-05-06 03:05 24.22880 120.81456 35220 ft 446 kts 19°
2026-05-06 03:05 24.25728 120.82745 35099 ft 439 kts 11°
2026-05-06 03:05 24.28667 120.83642 34788 ft 432 kts
2026-05-06 03:05 24.31487 120.84405 35560 ft 410 kts 12°
2026-05-06 03:06 24.34044 120.85707 36544 ft 404 kts 26°
2026-05-06 03:06 24.36185 120.87734 36967 ft 413 kts 42°
2026-05-06 03:06 24.37855 120.90461 36151 ft 452 kts 60°
2026-05-06 03:06 24.38761 120.93872 35287 ft 479 kts 77°
2026-05-06 03:07 24.39188 120.97494 35098 ft 482 kts 73°
2026-05-06 03:07 24.39995 121.01034 35434 ft 472 kts 63°
2026-05-06 03:07 24.41423 121.04182 36007 ft 447 kts 46°
2026-05-06 03:07 24.43445 121.06569 36640 ft 417 kts 31°
2026-05-06 03:08 24.45707 121.08510 37011 ft 413 kts 31°
2026-05-06 03:08 24.47953 121.10582 36795 ft 427 kts 33°
2026-05-06 03:08 24.50204 121.12839 36056 ft 451 kts 37°
2026-05-06 03:08 24.52343 121.15457 35242 ft 466 kts 46°
2026-05-06 03:09 24.54092 121.18430 35281 ft 459 kts 55°
2026-05-06 03:09 24.55523 121.21522 35672 ft 454 kts 57°
2026-05-06 03:09 24.57061 121.24569 35500 ft 459 kts 50°
2026-05-06 03:09 24.58894 121.27440 35072 ft 463 kts 46°
2026-05-06 03:10 24.60893 121.30188 35096 ft 459 kts 41°
2026-05-06 03:10 24.62986 121.32818 35500 ft 452 kts 42°
2026-05-06 03:10 24.64980 121.35450 36076 ft 446 kts 40°
2026-05-06 03:10 24.66874 121.38148 36332 ft 445 kts 47°
2026-05-06 03:11 24.68625 121.40950 36309 ft 457 kts 52°
2026-05-06 03:11 24.70258 121.44026 35808 ft 465 kts 47°
2026-05-06 03:11 24.72320 121.46707 35674 ft 457 kts 38°
2026-05-06 03:12 24.76840 121.51655 35673 ft 460 kts 38°
2026-05-06 03:12 24.79066 121.54238 35182 ft 470 kts 40°
2026-05-06 03:12 24.81242 121.56964 34684 ft 471 kts 44°
2026-05-06 03:12 24.83233 121.59751 34858 ft 459 kts 45°
2026-05-06 03:13 24.85127 121.62540 35019 ft 462 kts 46°
2026-05-06 03:13 24.89002 121.68256 35022 ft 466 kts 45°
2026-05-06 03:14 24.93085 121.73814 35019 ft 464 kts 42°
2026-05-06 03:14 24.97372 121.79124 35022 ft 463 kts 41°
2026-05-06 03:15 25.01640 121.84400 35028 ft 464 kts 41°
2026-05-06 03:15 25.05885 121.89787 35033 ft 464 kts 42°
2026-05-06 03:16 25.10079 121.95178 35047 ft 465 kts 42°
2026-05-06 03:16 25.14308 122.00612 35044 ft 465 kts 42°
2026-05-06 03:17 25.18487 122.06007 35053 ft 465 kts 43°
2026-05-06 03:17 25.22685 122.11465 35052 ft 465 kts 43°
2026-05-06 03:18 25.26878 122.16923 35044 ft 465 kts 43°
2026-05-06 03:18 25.31058 122.22365 35045 ft 466 kts 43°
2026-05-06 03:19 25.35240 122.27803 35042 ft 466 kts 43°
2026-05-06 03:19 25.39443 122.33282 35046 ft 466 kts 43°
2026-05-06 03:20 25.45727 122.41489 35049 ft 467 kts 43°
2026-05-06 03:20 25.49931 122.46986 35044 ft 468 kts 43°
2026-05-06 03:21 25.54146 122.52487 35046 ft 468 kts 43°
2026-05-06 03:21 25.58357 122.57949 35052 ft 469 kts 43°
2026-05-06 03:22 25.62595 122.63452 35048 ft 469 kts 43°
2026-05-06 03:22 25.66808 122.68942 35047 ft 470 kts 44°
2026-05-06 03:23 25.71047 122.74475 35051 ft 470 kts 44°
2026-05-06 03:23 25.75285 122.79999 35049 ft 471 kts 44°
2026-05-06 03:24 25.79529 122.85537 35053 ft 471 kts 44°
2026-05-06 03:24 25.83784 122.91108 35051 ft 472 kts 44°
2026-05-06 03:25 25.88028 122.96681 35051 ft 472 kts 44°
2026-05-06 03:25 25.92261 123.02222 35051 ft 473 kts 44°
2026-05-06 03:26 25.96523 123.07828 35054 ft 474 kts 44°
2026-05-06 03:26 26.00774 123.13438 35048 ft 474 kts 45°
2026-05-06 03:27 26.05009 123.19017 35047 ft 475 kts 45°
2026-05-06 03:27 26.09289 123.24657 35042 ft 476 kts 45°
2026-05-06 03:28 26.13538 123.30275 35037 ft 477 kts 45°
2026-05-06 03:28 26.17825 123.35945 35032 ft 478 kts 45°
2026-05-06 03:29 26.21390 123.40663 35028 ft 479 kts 46°
2026-05-06 03:29 26.25688 123.46364 35029 ft 480 kts 46°
2026-05-06 03:30 26.29959 123.52037 35031 ft 481 kts 46°
2026-05-06 03:30 26.34962 123.58701 35035 ft 482 kts 46°
2026-05-06 03:31 26.38551 123.63485 35040 ft 483 kts 46°
2026-05-06 03:31 26.42873 123.69238 35046 ft 484 kts 47°
2026-05-06 03:32 26.47179 123.74983 35044 ft 485 kts 47°
2026-05-06 03:32 26.51508 123.80773 35042 ft 486 kts 47°
2026-05-06 03:33 26.55827 123.86554 35042 ft 487 kts 47°
2026-05-06 03:33 26.60183 123.92372 35035 ft 488 kts 48°
2026-05-06 03:34 26.64541 123.98208 35033 ft 490 kts 48°
2026-05-06 03:34 26.68917 124.04090 35029 ft 491 kts 49°
2026-05-06 03:35 26.73270 124.09932 35028 ft 492 kts 49°
2026-05-06 03:35 26.77682 124.15830 35030 ft 494 kts 49°
2026-05-06 03:36 26.82108 124.21748 35028 ft 495 kts 49°
2026-05-06 03:36 26.86508 124.27651 35027 ft 497 kts 50°
2026-05-06 03:37 26.90952 124.33624 35025 ft 499 kts 50°
2026-05-06 03:37 26.95403 124.39641 35026 ft 501 kts 50°
2026-05-06 03:38 26.99843 124.45635 35028 ft 502 kts 50°
2026-05-06 03:38 27.04338 124.51686 35028 ft 504 kts 50°
2026-05-06 03:39 27.08803 124.57715 35031 ft 505 kts 51°
2026-05-06 03:39 27.13294 124.63807 35030 ft 506 kts 51°
2026-05-06 03:40 27.17777 124.69882 35035 ft 507 kts 51°
2026-05-06 03:40 27.22289 124.75990 35039 ft 508 kts 51°
2026-05-06 03:41 27.26792 124.82111 35039 ft 508 kts 52°
2026-05-06 03:41 27.31285 124.88238 35042 ft 509 kts 52°
2026-05-06 03:42 27.35804 124.94409 35038 ft 510 kts 52°
2026-05-06 03:42 27.40306 125.00549 35036 ft 511 kts 52°
2026-05-06 03:43 27.44862 125.06714 35040 ft 512 kts 51°
2026-05-06 03:43 27.49444 125.12862 35039 ft 513 kts 51°
2026-05-06 03:44 27.54029 125.19043 35042 ft 513 kts 52°
2026-05-06 03:44 27.58580 125.25213 35046 ft 514 kts 52°
2026-05-06 03:45 27.63151 125.31420 35052 ft 514 kts 52°
2026-05-06 03:45 27.67719 125.37636 35052 ft 514 kts 52°
2026-05-06 03:46 27.72284 125.43828 35056 ft 514 kts 53°
2026-05-06 03:46 27.76866 125.50049 35056 ft 515 kts 53°
2026-05-06 03:47 27.81405 125.56251 35053 ft 515 kts 53°
2026-05-06 03:47 27.85992 125.62525 35050 ft 516 kts 53°
2026-05-06 03:48 27.90554 125.68759 35046 ft 517 kts 54°
2026-05-06 03:48 27.95151 125.75053 35039 ft 518 kts 54°
2026-05-06 03:49 27.99731 125.81330 35045 ft 519 kts 54°
2026-05-06 03:49 28.04339 125.87664 35039 ft 521 kts 54°
2026-05-06 03:50 28.08933 125.93978 35038 ft 522 kts 54°
2026-05-06 03:50 28.13568 126.00360 35039 ft 523 kts 54°
2026-05-06 03:51 28.18161 126.06704 35040 ft 524 kts 54°
2026-05-06 03:51 28.22788 126.13106 35051 ft 524 kts 54°
2026-05-06 03:52 28.27426 126.19521 35057 ft 525 kts 54°
2026-05-06 03:52 28.32043 126.25911 35058 ft 525 kts 54°
2026-05-06 03:53 28.36680 126.32344 35061 ft 526 kts 54°
2026-05-06 03:53 28.41302 126.38780 35064 ft 526 kts 54°
2026-05-06 03:54 28.45905 126.45190 35062 ft 525 kts 54°
2026-05-06 03:54 28.50535 126.51642 35071 ft 525 kts 55°
2026-05-06 03:55 28.59082 126.63571 35078 ft 525 kts 55°
2026-05-06 03:55 28.68278 126.76466 35068 ft 523 kts 55°
2026-05-06 03:56 28.77438 126.89350 35069 ft 521 kts 55°
2026-05-06 03:56 28.86545 127.02177 35073 ft 518 kts 55°
2026-05-06 03:57 28.95530 127.14893 35075 ft 516 kts 55°
2026-05-06 03:57 29.04496 127.27633 35076 ft 515 kts 56°
2026-05-06 03:58 29.13461 127.40384 35076 ft 513 kts 56°
2026-05-06 03:58 29.22386 127.53140 35075 ft 512 kts 56°
2026-05-06 03:59 29.31312 127.65930 35059 ft 514 kts 56°
2026-05-06 03:59 29.40248 127.78741 35053 ft 516 kts 56°
2026-05-06 04:00 29.49228 127.91690 35052 ft 519 kts 56°
2026-05-06 04:00 29.58182 128.04626 35050 ft 522 kts 56°
2026-05-06 04:01 29.67250 128.17770 35052 ft 525 kts 56°
2026-05-06 04:01 29.76340 128.30984 35045 ft 527 kts 56°
2026-05-06 04:02 29.85439 128.44231 35078 ft 531 kts 56°
2026-05-06 04:02 29.94594 128.57644 35059 ft 532 kts 56°
2026-05-06 04:03 30.03750 128.71085 35059 ft 532 kts 56°
2026-05-06 04:03 30.12882 128.84538 35062 ft 532 kts 55°
2026-05-06 04:04 30.21972 128.97960 35062 ft 533 kts 55°
2026-05-06 04:04 30.31097 129.11495 35070 ft 533 kts 55°
2026-05-06 04:05 30.40155 129.24990 35072 ft 533 kts 55°
2026-05-06 04:05 30.49278 129.38610 35077 ft 534 kts 54°
2026-05-06 04:06 30.58385 129.52240 35078 ft 534 kts 55°
2026-05-06 04:06 30.67453 129.65869 35081 ft 535 kts 54°
2026-05-06 04:07 30.76549 129.79590 35089 ft 536 kts 54°
2026-05-06 04:07 30.85512 129.93501 35071 ft 534 kts 62°
2026-05-06 04:08 30.93319 130.08246 35076 ft 536 kts 61°
2026-05-06 04:08 31.01174 130.23045 35077 ft 538 kts 61°
2026-05-06 04:09 31.09011 130.37851 35083 ft 540 kts 61°
2026-05-06 04:09 31.16878 130.52850 35093 ft 541 kts 61°
2026-05-06 04:10 31.24717 130.67823 35084 ft 543 kts 61°
2026-05-06 04:10 31.32607 130.82904 35099 ft 543 kts 61°
2026-05-06 04:11 31.40466 130.98045 35124 ft 544 kts 62°
2026-05-06 04:11 31.48358 131.13266 35124 ft 546 kts 61°
2026-05-06 04:12 31.56194 131.28465 35120 ft 548 kts 61°
2026-05-06 04:12 31.64047 131.43800 35128 ft 549 kts 62°
2026-05-06 04:13 31.71930 131.59204 35113 ft 550 kts 62°
2026-05-06 04:13 31.79811 131.74676 35128 ft 551 kts 62°
2026-05-06 04:14 31.87629 131.90113 35127 ft 553 kts 62°
2026-05-06 04:14 31.95522 132.05740 35132 ft 555 kts 62°
2026-05-06 04:15 32.03423 132.21432 35130 ft 556 kts 62°
2026-05-06 04:15 32.11295 132.37180 35134 ft 557 kts 61°
2026-05-06 04:16 32.18486 132.53263 35132 ft 556 kts 67°
2026-05-06 04:16 32.23221 132.64947 35135 ft 557 kts 66°
2026-05-06 04:17 32.27775 132.75752 35134 ft 558 kts 65°
2026-05-06 04:17 32.34703 132.92113 35139 ft 559 kts 66°
2026-05-06 04:18 32.40434 133.05849 35144 ft 560 kts 65°
2026-05-06 04:18 32.48455 133.25095 35143 ft 560 kts 65°
2026-05-06 04:19 32.55314 133.41647 35149 ft 561 kts 65°
2026-05-06 04:19 32.61043 133.55512 35138 ft 561 kts 65°
2026-05-06 04:20 32.67895 133.72187 35142 ft 561 kts 65°
2026-05-06 04:20 32.74725 133.88904 35141 ft 561 kts 65°
2026-05-06 04:21 32.81528 134.05626 35146 ft 562 kts 68°
2026-05-06 04:21 32.86166 134.23168 35147 ft 558 kts 77°
2026-05-06 04:22 32.90607 134.40939 35146 ft 559 kts 76°
2026-05-06 04:23 32.97163 134.67579 35157 ft 559 kts 77°
2026-05-06 04:23 33.00696 134.85404 35159 ft 552 kts 88°
2026-05-06 04:24 33.02674 135.03595 35165 ft 552 kts 87°
2026-05-06 04:24 33.04636 135.21758 35166 ft 551 kts 88°
2026-05-06 04:25 33.06523 135.39812 35165 ft 552 kts 88°
2026-05-06 04:25 33.08436 135.58006 35169 ft 552 kts 88°
2026-05-06 04:26 33.10302 135.76222 35159 ft 553 kts 88°
2026-05-06 04:26 33.12161 135.94466 35163 ft 554 kts 88°
2026-05-06 04:27 33.13985 136.12698 35159 ft 555 kts 88°
2026-05-06 04:27 33.15782 136.31048 35156 ft 556 kts 88°
2026-05-06 04:28 33.17564 136.49423 35175 ft 557 kts 88°
2026-05-06 04:28 33.19300 136.67722 35175 ft 558 kts 88°
2026-05-06 04:29 33.21032 136.86170 35187 ft 558 kts 87°
2026-05-06 04:29 33.22733 137.04577 35179 ft 558 kts 87°
2026-05-06 04:30 33.25534 137.22778 35170 ft 561 kts 80°
2026-05-06 04:30 33.28782 137.41050 35180 ft 561 kts 80°
2026-05-06 04:31 33.32000 137.59357 35182 ft 562 kts 80°
2026-05-06 04:31 33.35151 137.77559 35183 ft 562 kts 81°
2026-05-06 04:32 33.38327 137.95937 35192 ft 562 kts 81°
2026-05-06 04:32 33.41471 138.14289 35183 ft 562 kts 81°
2026-05-06 04:33 33.43911 138.28032 35176 ft 564 kts 74°
2026-05-06 04:33 33.47036 138.36632 35175 ft 562 kts 56°
2026-05-06 04:33 33.51168 138.44592 35188 ft 562 kts 56°
2026-05-06 04:34 33.59250 138.60546 35202 ft 563 kts 56°
2026-05-06 04:34 33.67392 138.76663 35196 ft 562 kts 56°
2026-05-06 04:35 33.72519 138.86811 35201 ft 562 kts 56°
2026-05-06 04:35 33.76542 138.94802 35195 ft 562 kts 56°
2026-05-06 04:36 33.80594 139.02872 35200 ft 563 kts 56°
2026-05-06 04:36 33.84633 139.10943 35201 ft 563 kts 56°
2026-05-06 04:37 33.88665 139.19016 35204 ft 563 kts 56°
2026-05-06 04:37 33.92682 139.27060 35208 ft 562 kts 56°
2026-05-06 04:38 33.96708 139.35153 35207 ft 562 kts 56°
2026-05-06 04:38 34.00699 139.43206 35204 ft 562 kts 57°
2026-05-06 04:39 34.04717 139.51317 35202 ft 562 kts 57°
2026-05-06 04:39 34.09050 139.59081 35198 ft 557 kts 47°
2026-05-06 04:40 34.13917 139.66381 35207 ft 558 kts 47°
2026-05-06 04:40 34.18789 139.73700 35211 ft 558 kts 47°
2026-05-06 04:41 34.23616 139.80995 35213 ft 558 kts 47°
2026-05-06 04:41 34.28462 139.88348 35211 ft 559 kts 47°
2026-05-06 04:42 34.33318 139.95730 35214 ft 559 kts 47°
2026-05-06 04:42 34.38139 140.03061 35209 ft 559 kts 47°
2026-05-06 04:43 34.42986 140.10429 35213 ft 559 kts 47°
2026-05-06 04:43 34.47594 140.18079 35137 ft 564 kts 55°
2026-05-06 04:43 34.49680 140.22107 34898 ft 564 kts 55°
2026-05-06 04:44 34.51734 140.26093 34650 ft 564 kts 55°
2026-05-06 04:44 34.53819 140.30149 33493 ft 574 kts 55°
2026-05-06 04:44 34.55960 140.34311 32366 ft 582 kts 56°
2026-05-06 04:44 34.58106 140.38491 31360 ft 585 kts 56°
2026-05-06 04:45 34.60262 140.42695 30514 ft 584 kts 56°
2026-05-06 04:45 34.62410 140.46879 29284 ft 582 kts 56°
2026-05-06 04:45 34.64516 140.50984 27942 ft 579 kts 56°
2026-05-06 04:45 34.66624 140.55098 26932 ft 560 kts 56°
2026-05-06 04:46 34.68743 140.58984 26029 ft 540 kts 49°
2026-05-06 04:46 34.71257 140.62328 24312 ft 536 kts 36°
2026-05-06 04:46 34.74244 140.64947 23316 ft 519 kts 25°
2026-05-06 04:46 34.77352 140.66874 22659 ft 499 kts 17°
2026-05-06 04:47 34.80561 140.68241 21837 ft 475 kts
2026-05-06 04:47 34.83724 140.68990 20751 ft 453 kts 359°
2026-05-06 04:47 34.86807 140.69355 20325 ft 436 kts 359°
2026-05-06 04:47 34.89790 140.69715 19750 ft 424 kts 360°
2026-05-06 04:48 34.92661 140.70069 19192 ft 414 kts
2026-05-06 04:48 34.95522 140.70425 18642 ft 403 kts
2026-05-06 04:48 34.98258 140.70766 18088 ft 398 kts
2026-05-06 04:48 35.01009 140.71106 17575 ft 395 kts
2026-05-06 04:49 35.03738 140.71445 17093 ft 391 kts
2026-05-06 04:49 35.06444 140.71785 16614 ft 387 kts
2026-05-06 04:49 35.09115 140.72164 16136 ft 385 kts
2026-05-06 04:49 35.11717 140.72669 15684 ft 382 kts
2026-05-06 04:50 35.14318 140.73269 15226 ft 379 kts
2026-05-06 04:50 35.16897 140.73908 14771 ft 376 kts
2026-05-06 04:50 35.19451 140.74548 14312 ft 372 kts
2026-05-06 04:50 35.21970 140.75165 13823 ft 368 kts
2026-05-06 04:51 35.24488 140.75760 13314 ft 365 kts
2026-05-06 04:51 35.26940 140.76321 12829 ft 361 kts
2026-05-06 04:51 35.29404 140.76876 12288 ft 359 kts
2026-05-06 04:51 35.31874 140.77432 11617 ft 360 kts
2026-05-06 04:52 35.34316 140.77987 11272 ft 347 kts
2026-05-06 04:52 35.36606 140.78516 11194 ft 321 kts
2026-05-06 04:52 35.38733 140.79010 11071 ft 300 kts
2026-05-06 04:52 35.40692 140.79465 10947 ft 281 kts
2026-05-06 04:53 35.42565 140.79898 10830 ft 266 kts
2026-05-06 04:53 35.44340 140.80308 10707 ft 252 kts
2026-05-06 04:53 35.46019 140.80691 10610 ft 244 kts
2026-05-06 04:53 35.47683 140.81068 10506 ft 242 kts
2026-05-06 04:54 35.49345 140.81445 10393 ft 241 kts
2026-05-06 04:54 35.50997 140.81821 10287 ft 241 kts
2026-05-06 04:54 35.52630 140.82193 10183 ft 240 kts
2026-05-06 04:54 35.54279 140.82571 10084 ft 240 kts
2026-05-06 04:55 35.55920 140.82947 10013 ft 239 kts
2026-05-06 04:55 35.57560 140.83323 10014 ft 239 kts
2026-05-06 04:55 35.59198 140.83700 10015 ft 240 kts
2026-05-06 04:55 35.60841 140.84078 10019 ft 240 kts
2026-05-06 04:56 35.62463 140.84451 10015 ft 239 kts
2026-05-06 04:56 35.64100 140.84827 10018 ft 239 kts
2026-05-06 04:56 35.65740 140.85205 10017 ft 239 kts
2026-05-06 04:56 35.67371 140.85650 10015 ft 241 kts 16°
2026-05-06 04:57 35.68901 140.86528 10019 ft 243 kts 23°
2026-05-06 04:57 35.70409 140.87466 10017 ft 243 kts 23°
2026-05-06 04:57 35.71910 140.88398 10021 ft 243 kts 23°
2026-05-06 04:57 35.73423 140.89339 10020 ft 243 kts 23°
2026-05-06 04:58 35.74938 140.90278 10020 ft 243 kts 23°
2026-05-06 04:58 35.76456 140.91196 10018 ft 242 kts 18°
2026-05-06 04:58 35.78050 140.91675 10019 ft 237 kts
2026-05-06 04:58 35.79702 140.91779 10020 ft 237 kts
2026-05-06 04:59 35.81351 140.91885 10020 ft 237 kts
2026-05-06 04:59 35.83004 140.91996 10019 ft 237 kts
2026-05-06 04:59 35.84657 140.92108 10019 ft 237 kts
2026-05-06 04:59 35.86287 140.92218 10020 ft 237 kts
2026-05-06 05:00 35.87929 140.92217 10017 ft 235 kts 349°
2026-05-06 05:00 35.89489 140.91663 10020 ft 233 kts 338°
2026-05-06 05:00 35.91010 140.90959 10011 ft 234 kts 338°
2026-05-06 05:00 35.92536 140.90255 10023 ft 234 kts 338°
2026-05-06 05:01 35.94067 140.89553 10025 ft 234 kts 338°
2026-05-06 05:01 35.95536 140.88719 10015 ft 232 kts 322°
2026-05-06 05:01 35.96516 140.87190 10022 ft 234 kts 293°
2026-05-06 05:01 35.96733 140.85188 9798 ft 242 kts 262°
2026-05-06 05:02 35.96046 140.83285 9514 ft 246 kts 240°
2026-05-06 05:02 35.95112 140.81510 9236 ft 246 kts 240°
2026-05-06 05:02 35.94187 140.79738 8960 ft 245 kts 241°
2026-05-06 05:02 35.93266 140.77966 8703 ft 244 kts 240°
2026-05-06 05:03 35.92361 140.76218 8432 ft 243 kts 240°
2026-05-06 05:03 35.91457 140.74466 8167 ft 242 kts 240°
2026-05-06 05:03 35.90554 140.72715 7893 ft 241 kts 240°
2026-05-06 05:03 35.89654 140.70969 7641 ft 240 kts 240°
2026-05-06 05:04 35.88759 140.69237 7381 ft 238 kts 240°
2026-05-06 05:04 35.87870 140.67521 7115 ft 236 kts 240°
2026-05-06 05:04 35.86991 140.65815 6856 ft 234 kts 240°
2026-05-06 05:04 35.86118 140.64122 6603 ft 233 kts 239°
2026-05-06 05:05 35.85261 140.62465 6344 ft 231 kts 239°
2026-05-06 05:05 35.84673 140.60663 6087 ft 225 kts 265°
2026-05-06 05:05 35.84708 140.59397 5949 ft 222 kts 284°
2026-05-06 05:05 35.85688 140.57209 5822 ft 222 kts 309°
2026-05-06 05:06 35.86675 140.55727 5719 ft 223 kts 309°
2026-05-06 05:06 35.87324 140.54746 5646 ft 223 kts 309°
2026-05-06 05:06 35.88306 140.53259 5538 ft 223 kts 309°
2026-05-06 05:06 35.89285 140.51773 5429 ft 223 kts 308°
2026-05-06 05:07 35.90265 140.50282 5321 ft 223 kts 308°
2026-05-06 05:07 35.91244 140.48792 5208 ft 223 kts 308°
2026-05-06 05:07 35.92222 140.47301 5092 ft 223 kts 308°
2026-05-06 05:07 35.93186 140.45831 4995 ft 223 kts 308°
2026-05-06 05:08 35.94163 140.44340 4884 ft 223 kts 308°
2026-05-06 05:08 35.95147 140.42839 4767 ft 224 kts 308°
2026-05-06 05:08 35.96129 140.41341 4654 ft 225 kts 308°
2026-05-06 05:08 35.97089 140.39809 4549 ft 225 kts 306°
2026-05-06 05:09 35.98026 140.38257 4429 ft 225 kts 305°
2026-05-06 05:09 35.98951 140.36714 4326 ft 226 kts 306°
2026-05-06 05:09 35.99889 140.35147 4192 ft 227 kts 305°
2026-05-06 05:09 36.00574 140.33415 4089 ft 225 kts 281°
2026-05-06 05:10 36.00578 140.31501 3986 ft 223 kts 254°
2026-05-06 05:10 35.99936 140.29772 3993 ft 223 kts 238°
2026-05-06 05:10 35.99141 140.28143 3822 ft 226 kts 238°
2026-05-06 05:10 35.98253 140.26610 3649 ft 214 kts 224°
2026-05-06 05:11 35.97088 140.25550 3518 ft 203 kts 206°
2026-05-06 05:11 35.95759 140.25009 3396 ft 200 kts 188°
2026-05-06 05:11 35.94372 140.24994 3257 ft 199 kts 171°
2026-05-06 05:11 35.93064 140.25510 3144 ft 195 kts 153°
2026-05-06 05:12 35.91954 140.26307 3048 ft 177 kts 150°
2026-05-06 05:12 35.90933 140.27048 2945 ft 162 kts 150°
2026-05-06 05:12 35.89979 140.27741 2888 ft 157 kts 150°
2026-05-06 05:12 35.89072 140.28399 2744 ft 146 kts 150°
2026-05-06 05:13 35.88210 140.29024 2567 ft 142 kts 150°
2026-05-06 05:13 35.87377 140.29629 2391 ft 140 kts 150°
2026-05-06 05:13 35.86533 140.30240 2202 ft 139 kts 150°
2026-05-06 05:13 35.85696 140.30847 2026 ft 139 kts 150°
2026-05-06 05:14 35.84866 140.31449 1845 ft 138 kts 149°
2026-05-06 05:14 35.84052 140.32039 1665 ft 137 kts 150°
2026-05-06 05:14 35.83234 140.32631 1457 ft 136 kts 149°
2026-05-06 05:14 35.82417 140.33225 1278 ft 137 kts 150°
2026-05-06 05:15 35.81606 140.33812 1088 ft 136 kts 149°
2026-05-06 05:15 35.80794 140.34400 879 ft 133 kts 150°
2026-05-06 05:15 35.79998 140.34975 776 ft 133 kts 151°
2026-05-06 05:15 35.79200 140.35549 613 ft 132 kts 152°
2026-05-06 05:16 35.78416 140.36121 417 ft 131 kts 153°
2026-05-06 05:16 35.77631 140.36690 246 ft 131 kts 149°
2026-05-06 05:16 35.76868 140.37238 144 ft 115 kts 150°
2026-05-06 05:16 35.76368 140.37601 145 ft 65 kts 149°
2026-05-06 05:17 35.76031 140.37840 144 ft 44 kts 147°
2026-05-06 05:17 35.75877 140.38037 146 ft 27 kts 126°
2026-05-06 05:17 35.75805 140.38185 145 ft 14 kts 118°
2026-05-06 05:17 35.75758 140.38289 145 ft 14 kts 122°
2026-05-06 05:18 35.75678 140.38359 145 ft 14 kts 149°
2026-05-06 05:18 35.75589 140.38422 145 ft 15 kts 150°
2026-05-06 05:18 35.75510 140.38477 145 ft 9 kts 150°
2026-05-06 05:18 35.75489 140.38537 144 ft 8 kts 72°
2026-05-06 05:19 35.75507 140.38596 144 ft 6 kts 106°
2026-05-06 05:19 35.75472 140.38633 144 ft 7 kts 148°
2026-05-06 05:19 35.75433 140.38667 144 ft 7 kts 137°
2026-05-06 05:19 35.75423 140.38717 144 ft 6 kts 65°
2026-05-06 05:20 35.75452 140.38740 144 ft 5 kts 26°
2026-05-06 05:20 35.75480 140.38757 144 ft 4 kts 26°
2026-05-06 05:20 35.75504 140.38771 144 ft 4 kts 24°
2026-05-06 05:20 35.75547 140.38794 144 ft 9 kts 24°
2026-05-06 05:21 35.75599 140.38822 144 ft 8 kts 23°
2026-05-06 05:21 35.75646 140.38847 144 ft 8 kts 23°
2026-05-06 05:21 35.75704 140.38871 144 ft 8 kts
2026-05-06 05:21 35.75754 140.38841 144 ft 8 kts 329°
2026-05-06 05:22 35.75799 140.38816 144 ft 6 kts 356°
2026-05-06 05:22 35.75842 140.38833 144 ft 7 kts 24°
2026-05-06 05:22 35.75890 140.38859 144 ft 7 kts 24°
2026-05-06 05:22 35.75938 140.38885 144 ft 7 kts 24°
2026-05-06 05:23 35.75978 140.38907 144 ft 6 kts 25°
2026-05-06 05:23 35.76027 140.38931 144 ft 8 kts
2026-05-06 05:23 35.76092 140.38810 144 ft 11 kts 294°
2026-05-06 05:24 35.76124 140.38725 144 ft 10 kts 301°
2026-05-06 05:24 35.76169 140.38683 144 ft 7 kts 329°
2026-05-06 05:24 35.76204 140.38658 144 ft 6 kts 330°
2026-05-06 05:24 35.76220 140.38634 144 ft 2 kts 276°
2026-05-06 05:25 35.76216 140.38618 144 ft 2 kts 249°
2026-05-06 05:25 35.76206 140.38594 144 ft 3 kts 242°
2026-05-06 05:25 35.76192 140.38565 144 ft 4 kts 239°
2026-05-06 05:25 35.76183 140.38546 144 ft 1 kts 239°
2026-05-06 05:26 35.76177 140.38533 144 ft 1 kts 239°
2026-05-06 05:26 35.76176 140.38532 144 ft 0 kts 239°